Location: Unspecified
(0.0000°N, 0.0000°E)
Time: 01:24:06
(UTC+00:00)

Vanguard 2 - Pass Details

Date: 23 September 2019
Orbit: 552 x 2939 km, 32.9° (Epoch: 18 February)

Event Time Altitude Azimuth Distance (km) Brightness Sun altitude
Rises 10:25:55 0° 307° (NW) 2,921 10.3 68.4°
Reaches altitude 10° 10:28:21 10° 308° (NW) 1,892 9.5 69.0°
Maximum altitude 10:32:25 80° 35° (NE) 558 8.8 70.0°
Drops below altitude 10° 10:36:30 10° 122° (ESE) 1,904 10.0 71.0°
Sets 10:38:57 0° 123° (ESE) 2,942 10.7 71.6°
